149P/Mueller 4 (2010)

Japanese version
Home page
Updated on October 3, 2010

---------------------------------------------------------------------

* Profile

* Pictures

* Orbital Elements

The following orbital elements are taken from MPC 59598:

Epoch 2010 Feb. 13.0 TT = JDT 2455240.5
T 2010 Feb. 19.2058 TT                                  MPC
q   2.650930             (2000.0)            P               Q
n   0.1091958      Peri.   43.7666      -0.9357055      +0.2111703
a   4.335098       Node   145.2657      -0.2118364      -0.9768875
e   0.388496       Incl.   29.7349      +0.2821001      -0.0331340
P   9.03
From 100 observations 1992-2001, mean residual 0".8.

* Magnitudes Graph

        m1 = -2.3 + 5 log d + 44 log r(t - 150)

---------------------------------------------------------------------

The orbital elements are published at the MPC Ephemerides and Orbital Elements.
The magnitudes graphs are made with Comet for Windows.

---------------------------------------------------------------------

Copyright(C) Seiichi Yoshida (comet@aerith.net). All rights reserved.